Orbital Elements at Epoch 2459200.5 (2020-Dec-17.0) TDB
Reference: JPL 27 (heliocentric ecliptic J2000)
Element | Value | Uncertainty (1-sigma) | Units |
e | .1500434216772912 | 3.119e-08 | |
a | 2.202106443034917 | 5.2316e-09 | au |
q | 1.871694857424349 | 6.954e-08 | au |
i | 1.349274208401451 | 3.338e-06 | deg |
node | 239.8282321467737 | 0.0001316 | deg |
peri | 170.6836638652544 | 0.00013203 | deg |
M | 359.9951560733134 | 1.0004e-05 | deg |
tp | 2459200.516060199986 (2020-Dec-17.01606020) | 3.3168e-05 | TDB |
period | 1193.591969687667 3.27 | 4.2534e-06 1.165e-08 | d yr |
n | .301610608266913 | 1.0748e-09 | deg/d |
Q | 2.532518028645485 | 6.0165e-09 | au |
|
| | Orbit Determination Parameters
Additional Information
|